Time,TemperatureF,DewpointF,PressureIn,WindDirection,WindDirectionDegrees,WindSpeedMPH,WindSpeedGustMPH,Humidity,HourlyPrecipIn,Conditions,Clouds,dailyrainin,SolarRadiationWatts/m^2,SoftwareType,DateUTC
2013-12-29 00:00:00,69.9,57.6,29.98,SE,139,8.0,11.0,65,0.00,,,0.00,0.00,VWS V15.00,2013-12-29 05:00:00,
2013-12-29 00:01:00,70.0,59.4,30.01,SE,134,7.0,7.0,69,0.00,,CLR,0.00,0.00,VWS V14.01,2013-12-29 05:01:00,
2013-12-29 00:02:00,70.0,59.4,30.01,SE,128,8.0,10.0,69,0.00,,CLR,0.00,0.00,VWS V14.01,2013-12-29 05:02:00,
2013-12-29 00:07:00,69.9,58.9,30.01,SE,128,9.0,11.0,68,0.00,,CLR,0.00,0.00,VWS V14.01,2013-12-29 05:07:00,
2013-12-29 00:12:00,70.0,59.0,30.00,East,98,9.0,11.0,68,0.00,,CLR,0.00,0.00,VWS V14.01,2013-12-29 05:12:00,
2013-12-29 00:17:00,69.9,58.9,30.00,SE,127,8.0,11.0,68,0.00,,CLR,0.00,0.00,VWS V14.01,2013-12-29 05:17:00,
2013-12-29 00:22:00,69.9,58.5,29.99,ESE,112,8.0,11.0,67,0.00,,CLR,0.00,0.00,VWS V14.01,2013-12-29 05:22:00,
2013-12-29 00:27:00,69.9,58.5,29.99,ESE,108,6.0,11.0,67,0.00,,CLR,0.00,0.00,VWS V14.01,2013-12-29 05:27:00,
2013-12-29 00:30:00,69.8,58.4,29.99,ESE,115,4.0,11.0,67,0.00,,,0.00,0.00,VWS V15.00,2013-12-29 05:30:00,
2013-12-29 00:32:00,69.8,58.4,29.99,ESE,111,7.0,10.0,67,0.00,,CLR,0.00,0.00,VWS V14.01,2013-12-29 05:32:00,
2013-12-29 00:37:00,69.8,58.4,29.98,ESE,109,8.0,10.0,67,0.00,,CLR,0.00,0.00,VWS V14.01,2013-12-29 05:37:00,
2013-12-29 00:42:00,69.8,57.9,29.97,SE,129,5.0,10.0,66,0.00,,CLR,0.00,0.00,VWS V14.01,2013-12-29 05:42:00,
2013-12-29 00:47:00,69.8,57.9,29.97,SE,132,7.0,11.0,66,0.00,,CLR,0.00,0.00,VWS V14.01,2013-12-29 05:47:00,
2013-12-29 00:52:00,69.8,57.5,29.98,SE,132,8.0,11.0,65,0.00,,CLR,0.00,0.00,VWS V14.01,2013-12-29 05:52:00,
2013-12-29 00:57:00,69.9,57.6,29.98,SE,133,7.0,11.0,65,0.00,,CLR,0.00,0.00,VWS V14.01,2013-12-29 05:57:00,
2013-12-29 01:00:00,69.9,57.6,29.98,SE,139,8.0,11.0,65,0.00,,,0.00,0.00,VWS V15.00,2013-12-29 06:00:00,
2013-12-29 01:02:00,69.9,57.6,29.98,ESE,118,6.0,10.0,65,0.00,,FEW016,0.00,0.00,VWS V14.01,2013-12-29 06:02:00,
2013-12-29 01:07:00,69.9,57.6,29.98,SE,138,9.0,10.0,65,0.00,,FEW016,0.00,0.00,VWS V14.01,2013-12-29 06:07:00,
2013-12-29 01:12:00,70.0,57.7,29.98,SE,134,8.0,14.0,65,0.00,,FEW016,0.00,0.00,VWS V14.01,2013-12-29 06:12:00,
2013-12-29 01:17:00,70.0,57.7,29.98,SE,129,11.0,14.0,65,0.00,,BKN016,0.00,0.00,VWS V14.01,2013-12-29 06:17:00,
2013-12-29 01:22:00,70.0,57.3,29.97,SSE,153,8.0,14.0,64,0.00,,BKN016,0.00,0.00,VWS V14.01,2013-12-29 06:22:00,
2013-12-29 01:27:00,70.1,57.4,29.97,SE,138,5.0,14.0,64,0.00,,BKN016,0.00,0.00,VWS V14.01,2013-12-29 06:27:00,
2013-12-29 01:30:00,70.1,57.4,29.97,ESE,119,5.0,14.0,64,0.00,,,0.00,0.00,VWS V15.00,2013-12-29 06:30:00,
2013-12-29 01:32:00,70.1,57.4,29.97,ESE,118,8.0,10.0,64,0.00,,BKN016,0.00,0.00,VWS V14.01,2013-12-29 06:32:00,
2013-12-29 01:37:00,70.1,56.9,29.96,SE,138,8.0,14.0,63,0.00,,OVC014,0.00,0.00,VWS V14.01,2013-12-29 06:37:00,
2013-12-29 01:42:00,70.2,57.0,29.96,SE,146,6.0,14.0,63,0.00,,OVC014,0.00,0.00,VWS V14.01,2013-12-29 06:42:00,
2013-12-29 01:47:00,70.4,56.8,29.96,SE,138,10.0,14.0,62,0.00,,OVC014,0.00,0.00,VWS V14.01,2013-12-29 06:47:00,
2013-12-29 01:52:00,70.5,57.3,29.96,SE,143,6.0,14.0,63,0.00,,OVC014,0.00,0.00,VWS V14.01,2013-12-29 06:52:00,
2013-12-29 01:57:00,70.6,57.4,29.95,SSE,156,10.0,14.0,63,0.00,,OVC014,0.00,0.00,VWS V14.01,2013-12-29 06:57:00,
2013-12-29 02:00:00,70.7,57.1,29.95,SE,143,9.0,14.0,62,0.00,,,0.00,0.00,VWS V15.00,2013-12-29 07:00:00,
2013-12-29 02:02:00,70.8,57.2,29.95,ESE,121,11.0,12.0,62,0.00,,OVC012,0.00,0.00,VWS V14.01,2013-12-29 07:02:00,
2013-12-29 02:07:00,70.8,57.6,29.94,SSE,148,8.0,15.0,63,0.00,,OVC012,0.00,0.00,VWS V14.01,2013-12-29 07:07:00,
2013-12-29 02:13:00,71.0,57.3,29.94,SE,131,7.0,17.0,62,0.00,,OVC012,0.00,0.00,VWS V14.01,2013-12-29 07:13:00,
2013-12-29 02:18:00,71.1,57.9,29.93,SSE,160,9.0,17.0,63,0.00,,OVC014,0.00,0.00,VWS V14.01,2013-12-29 07:18:00,
2013-12-29 02:23:00,71.2,58.0,29.93,SE,143,11.0,17.0,63,0.00,,OVC014,0.00,0.00,VWS V14.01,2013-12-29 07:23:00,
2013-12-29 02:28:00,71.4,58.6,29.92,SE,132,10.0,18.0,64,0.00,,OVC014,0.00,0.00,VWS V14.01,2013-12-29 07:28:00,
2013-12-29 02:30:00,71.4,58.6,29.92,SE,124,7.0,18.0,64,0.00,,,0.00,0.00,VWS V15.00,2013-12-29 07:30:00,
2013-12-29 02:33:00,71.4,59.0,29.92,SE,126,10.0,13.0,65,0.00,,OVC014,0.00,0.00,VWS V14.01,2013-12-29 07:33:00,
2013-12-29 02:38:00,71.5,59.1,29.93,SE,143,11.0,15.0,65,0.00,,OVC014,0.00,0.00,VWS V14.01,2013-12-29 07:38:00,
2013-12-29 02:43:00,71.7,59.3,29.93,SE,136,13.0,17.0,65,0.00,,OVC014,0.00,0.00,VWS V14.01,2013-12-29 07:43:00,
2013-12-29 02:48:00,71.7,59.8,29.93,SE,136,9.0,17.0,66,0.00,,OVC014,0.00,0.00,VWS V14.01,2013-12-29 07:48:00,
2013-12-29 02:53:00,71.9,59.9,29.93,SE,134,14.0,19.0,66,0.00,,OVC014,0.00,0.00,VWS V14.01,2013-12-29 07:53:00,
2013-12-29 02:58:00,71.9,60.4,29.93,SE,137,9.0,19.0,67,0.00,,OVC014,0.00,0.00,VWS V14.01,2013-12-29 07:58:00,
2013-12-29 03:00:00,72.7,62.4,29.93,SSE,157,7.0,20.0,70,0.00,,,0.00,0.00,VWS V15.00,2013-12-29 08:00:00,
2013-12-29 03:03:00,72.0,60.5,29.93,SE,141,18.0,18.0,67,0.00,,OVC012,0.00,0.00,VWS V14.01,2013-12-29 08:03:00,
2013-12-29 03:08:00,72.1,60.5,29.93,SE,135,9.0,19.0,67,0.00,,OVC012,0.00,0.00,VWS V14.01,2013-12-29 08:08:00,
2013-12-29 03:13:00,72.2,60.7,29.93,SSE,159,8.0,19.0,67,0.00,,OVC012,0.00,0.00,VWS V14.01,2013-12-29 08:13:00,
2013-12-29 03:18:00,72.2,61.1,29.93,SE,144,12.0,19.0,68,0.00,,OVC019,0.00,0.00,VWS V14.01,2013-12-29 08:18:00,
2013-12-29 03:23:00,72.3,61.2,29.93,SE,138,10.0,19.0,68,0.00,,OVC019,0.00,0.00,VWS V14.01,2013-12-29 08:23:00,
2013-12-29 03:28:00,72.3,61.6,29.93,SE,145,11.0,19.0,69,0.00,,OVC019,0.00,0.00,VWS V14.01,2013-12-29 08:28:00,
2013-12-29 03:30:00,73.0,63.5,29.94,SSE,154,7.0,17.0,72,0.00,,,0.00,0.00,VWS V15.00,2013-12-29 08:30:00,
2013-12-29 03:33:00,72.4,61.7,29.93,SE,142,10.0,15.0,69,0.00,,OVC019,0.00,0.00,VWS V14.01,2013-12-29 08:33:00,
2013-12-29 03:38:00,72.5,61.8,29.92,SSE,164,6.0,16.0,69,0.00,,OVC021,0.00,0.00,VWS V14.01,2013-12-29 08:38:00,
2013-12-29 03:43:00,72.6,61.9,29.93,SE,134,7.0,20.0,69,0.00,,OVC021,0.00,0.00,VWS V14.01,2013-12-29 08:43:00,
2013-12-29 03:48:00,72.6,62.3,29.92,SE,128,11.0,20.0,70,0.00,,OVC021,0.00,0.00,VWS V14.01,2013-12-29 08:48:00,
2013-12-29 03:53:00,72.6,62.3,29.93,SE,132,9.0,20.0,70,0.00,,OVC021,0.00,0.00,VWS V14.01,2013-12-29 08:53:00,
2013-12-29 03:58:00,72.7,62.4,29.93,SSE,151,12.0,20.0,70,0.00,,OVC023,0.00,0.00,VWS V14.01,2013-12-29 08:58:00,
2013-12-29 04:00:00,72.6,62.7,29.92,SSE,150,15.0,16.0,71,0.00,,,0.00,0.00,VWS V15.00,2013-12-29 09:00:00,
2013-12-29 04:03:00,72.8,62.9,29.93,SE,141,5.0,13.0,71,0.00,,OVC023,0.00,0.00,VWS V14.01,2013-12-29 09:03:00,
2013-12-29 04:08:00,72.8,62.9,29.93,SE,139,7.0,16.0,71,0.00,,OVC023,0.00,0.00,VWS V14.01,2013-12-29 09:08:00,
2013-12-29 04:13:00,72.8,62.9,29.93,SSE,157,10.0,16.0,71,0.00,,OVC023,0.00,0.00,VWS V14.01,2013-12-29 09:13:00,
2013-12-29 04:18:00,72.9,63.0,29.93,SSE,147,5.0,17.0,71,0.00,,OVC022,0.00,0.00,VWS V14.01,2013-12-29 09:18:00,
2013-12-29 04:23:00,72.9,63.0,29.94,SSE,167,8.0,17.0,71,0.00,,OVC022,0.00,0.00,VWS V14.01,2013-12-29 09:23:00,
2013-12-29 04:28:00,72.9,63.3,29.94,South,171,11.0,17.0,72,0.00,,OVC022,0.00,0.00,VWS V14.01,2013-12-29 09:28:00,
2013-12-29 04:30:00,72.1,61.0,29.92,SE,134,9.0,16.0,68,0.00,,,0.00,0.00,VWS V15.00,2013-12-29 09:30:00,
2013-12-29 04:34:00,73.0,63.5,29.94,SE,146,8.0,11.0,72,0.00,,OVC022,0.00,0.00,VWS V14.01,2013-12-29 09:34:00,
2013-12-29 04:39:00,73.0,63.5,29.94,South,169,6.0,14.0,72,0.00,,OVC024,0.00,0.00,VWS V14.01,2013-12-29 09:39:00,
2013-12-29 04:44:00,73.0,63.5,29.93,SE,138,16.0,16.0,72,0.00,,OVC024,0.00,0.00,VWS V14.01,2013-12-29 09:44:00,
2013-12-29 04:49:00,72.9,63.3,29.93,SE,140,10.0,16.0,72,0.00,,OVC024,0.00,0.00,VWS V14.01,2013-12-29 09:49:00,
2013-12-29 04:54:00,72.7,63.2,29.93,SSE,162,6.0,16.0,72,0.00,,OVC024,0.00,0.00,VWS V14.01,2013-12-29 09:54:00,
2013-12-29 04:59:00,72.6,62.7,29.93,ESE,120,12.0,16.0,71,0.00,,OVC025,0.00,0.00,VWS V14.01,2013-12-29 09:59:00,
2013-12-29 05:00:00,72.0,59.6,29.94,SSW,192,4.0,10.0,65,0.00,,,0.00,0.00,VWS V15.00,2013-12-29 10:00:00,
2013-12-29 05:04:00,72.6,62.7,29.92,SE,143,9.0,16.0,71,0.00,,OVC025,0.00,0.00,VWS V14.01,2013-12-29 10:04:00,
2013-12-29 05:09:00,72.5,62.6,29.92,SE,134,9.0,16.0,71,0.00,,OVC025,0.00,0.00,VWS V14.01,2013-12-29 10:09:00,
2013-12-29 05:14:00,72.4,62.1,29.93,SE,138,9.0,16.0,70,0.00,,OVC025,0.00,0.00,VWS V14.01,2013-12-29 10:14:00,
2013-12-29 05:19:00,72.3,62.0,29.92,SE,140,12.0,16.0,70,0.00,,OVC025,0.00,0.00,VWS V14.01,2013-12-29 10:19:00,
2013-12-29 05:24:00,72.2,61.5,29.92,SSE,165,5.0,16.0,69,0.00,,OVC025,0.00,0.00,VWS V14.01,2013-12-29 10:24:00,
2013-12-29 05:29:00,72.1,61.0,29.92,SE,144,5.0,16.0,68,0.00,,OVC025,0.00,0.00,VWS V14.01,2013-12-29 10:29:00,
2013-12-29 05:30:00,72.1,61.0,29.92,SE,134,9.0,16.0,68,0.00,,,0.00,0.00,VWS V15.00,2013-12-29 10:30:00,
2013-12-29 05:34:00,72.1,61.0,29.92,SE,139,9.0,9.0,68,0.00,,OVC025,0.00,0.00,VWS V14.01,2013-12-29 10:34:00,
2013-12-29 05:39:00,72.0,60.5,29.92,SSE,160,5.0,9.0,67,0.00,,OVC023,0.00,0.00,VWS V14.01,2013-12-29 10:39:00,
2013-12-29 05:44:00,72.0,60.0,29.92,SSE,165,5.0,10.0,66,0.00,,OVC023,0.00,0.00,VWS V14.01,2013-12-29 10:44:00,
2013-12-29 05:49:00,71.9,59.9,29.93,SSE,162,2.0,10.0,66,0.00,,OVC023,0.00,0.00,VWS V14.01,2013-12-29 10:49:00,
2013-12-29 05:54:00,72.0,59.6,29.94,SW,225,5.0,10.0,65,0.00,,OVC023,0.00,0.00,VWS V14.01,2013-12-29 10:54:00,
2013-12-29 05:59:00,72.1,59.7,29.93,SSW,196,3.0,10.0,65,0.00,,OVC042,0.00,0.00,VWS V14.01,2013-12-29 10:59:00,
2013-12-29 06:00:00,72.0,59.6,29.94,SSW,192,4.0,10.0,65,0.00,,,0.00,0.00,VWS V15.00,2013-12-29 11:00:00,
2013-12-29 06:04:00,72.1,59.7,29.94,SW,217,3.0,6.0,65,0.00,,OVC042,0.00,0.00,VWS V14.01,2013-12-29 11:04:00,
2013-12-29 06:09:00,72.1,59.7,29.94,SSW,195,3.0,6.0,65,0.00,,OVC042,0.00,0.00,VWS V14.01,2013-12-29 11:09:00,
2013-12-29 06:14:00,72.1,59.7,29.94,SSW,210,2.0,6.0,65,0.00,,OVC042,0.00,0.00,VWS V14.01,2013-12-29 11:14:00,
2013-12-29 06:19:00,72.0,59.6,29.94,SSW,205,0.0,6.0,65,0.00,,BKN036,0.00,0.00,VWS V14.01,2013-12-29 11:19:00,
2013-12-29 06:24:00,71.9,59.5,29.94,SSW,205,1.0,6.0,65,0.00,,BKN036,0.00,0.00,VWS V14.01,2013-12-29 11:24:00,
2013-12-29 06:29:00,71.8,59.0,29.95,SSW,205,1.0,6.0,64,0.00,,BKN036,0.00,0.00,VWS V14.01,2013-12-29 11:29:00,
2013-12-29 06:30:00,71.8,57.6,29.95,SSE,166,4.0,7.0,61,0.00,,,0.00,5.00,VWS V15.00,2013-12-29 11:30:00,
2013-12-29 06:34:00,71.8,58.5,29.94,South,178,0.0,2.0,63,0.00,,BKN036,0.00,0.00,VWS V14.01,2013-12-29 11:34:00,
2013-12-29 06:39:00,71.7,58.5,29.95,South,175,1.0,3.0,63,0.00,,BKN049,0.00,0.00,VWS V14.01,2013-12-29 11:39:00,
2013-12-29 06:44:00,71.7,58.0,29.95,SSE,165,1.0,5.0,62,0.00,,BKN049,0.00,0.00,VWS V14.01,2013-12-29 11:44:00,
2013-12-29 06:49:00,71.7,57.5,29.95,SSE,153,3.0,5.0,61,0.00,,BKN037,0.00,0.00,VWS V14.01,2013-12-29 11:49:00,
2013-12-29 06:54:00,71.8,57.2,29.95,SSE,155,4.0,6.0,60,0.00,,BKN037,0.00,0.00,VWS V14.01,2013-12-29 11:54:00,
2013-12-29 06:59:00,71.9,57.7,29.95,SE,142,6.0,7.0,61,0.00,,BKN037,0.00,0.00,VWS V14.01,2013-12-29 11:59:00,
2013-12-29 07:00:00,71.9,57.7,29.95,SE,138,4.0,7.0,61,0.00,,,0.00,0.00,VWS V15.00,2013-12-29 12:00:00,
2013-12-29 07:04:00,71.9,58.2,29.95,SSE,168,2.0,6.0,62,0.00,,BKN037,0.00,0.00,VWS V14.01,2013-12-29 12:04:00,
2013-12-29 07:09:00,71.9,58.2,29.95,SSE,165,2.0,6.0,62,0.00,,BKN037,0.00,0.00,VWS V14.01,2013-12-29 12:09:00,
2013-12-29 07:14:00,71.9,58.2,29.94,SSE,147,3.0,6.0,62,0.00,,BKN037,0.00,0.00,VWS V14.01,2013-12-29 12:14:00,
2013-12-29 07:20:00,71.8,58.1,29.94,SSE,148,4.0,7.0,62,0.00,,BKN037,0.00,0.00,VWS V14.01,2013-12-29 12:20:00,
2013-12-29 07:25:00,71.8,57.6,29.95,SSE,156,2.0,7.0,61,0.00,,BKN037,0.00,0.00,VWS V14.01,2013-12-29 12:25:00,
2013-12-29 07:30:00,71.9,57.7,29.95,SSE,166,3.0,7.0,61,0.00,,BKN037,0.00,0.00,VWS V14.01,2013-12-29 12:30:00,
2013-12-29 07:35:00,71.9,57.7,29.95,South,185,2.0,4.0,61,0.00,,BKN037,0.00,5.00,VWS V14.01,2013-12-29 12:35:00,
2013-12-29 07:40:00,71.9,57.7,29.95,South,171,1.0,4.0,61,0.00,,BKN037,0.00,7.00,VWS V14.01,2013-12-29 12:40:00,
2013-12-29 07:45:00,72.0,57.8,29.95,SSE,153,2.0,4.0,61,0.00,,BKN037,0.00,12.00,VWS V14.01,2013-12-29 12:45:00,
2013-12-29 07:50:00,72.1,58.4,29.95,SSE,166,4.0,5.0,62,0.00,,BKN037,0.00,18.00,VWS V14.01,2013-12-29 12:50:00,
2013-12-29 07:55:00,72.1,58.4,29.95,SSE,165,4.0,6.0,62,0.00,,OVC027,0.00,18.00,VWS V14.01,2013-12-29 12:55:00,
2013-12-29 08:00:00,72.2,58.9,29.96,South,186,3.0,6.0,63,0.00,,OVC027,0.00,16.00,VWS V14.01,2013-12-29 13:00:00,
2013-12-29 08:05:00,72.3,59.0,29.96,South,169,5.0,7.0,63,0.00,,OVC027,0.00,14.00,VWS V14.01,2013-12-29 13:05:00,
2013-12-29 08:10:00,72.5,59.6,29.95,SE,144,9.0,9.0,64,0.00,,OVC027,0.00,26.00,VWS V14.01,2013-12-29 13:10:00,
2013-12-29 08:15:00,72.6,60.2,29.95,South,178,6.0,11.0,65,0.00,,OVC027,0.00,28.00,VWS V14.01,2013-12-29 13:15:00,
2013-12-29 08:20:00,72.9,60.9,29.95,SSE,163,7.0,11.0,66,0.00,,OVC027,0.00,26.00,VWS V14.01,2013-12-29 13:20:00,
2013-12-29 08:25:00,73.0,61.4,29.95,South,175,2.0,11.0,67,0.00,,OVC027,0.00,47.00,VWS V14.01,2013-12-29 13:25:00,
2013-12-29 08:30:00,73.2,62.0,29.96,SSW,201,2.0,11.0,68,0.00,,OVC027,0.00,54.00,VWS V14.01,2013-12-29 13:30:00,
2013-12-29 08:35:00,73.4,62.2,29.96,SSW,197,2.0,6.0,68,0.00,,OVC027,0.00,46.00,VWS V14.01,2013-12-29 13:35:00,
2013-12-29 08:40:00,73.5,62.7,29.97,South,182,2.0,9.0,69,0.00,,OVC027,0.00,42.00,VWS V14.01,2013-12-29 13:40:00,
2013-12-29 08:45:00,73.7,63.3,29.96,South,186,6.0,9.0,70,0.00,,OVC027,0.00,51.00,VWS V14.01,2013-12-29 13:45:00,
2013-12-29 08:50:00,73.7,63.3,29.97,SSW,209,5.0,9.0,70,0.00,,OVC027,0.00,35.00,VWS V14.01,2013-12-29 13:50:00,
2013-12-29 08:55:00,73.8,63.4,29.97,SSW,206,6.0,9.0,70,0.00,,OVC024,0.00,25.00,VWS V14.01,2013-12-29 13:55:00,
2013-12-29 09:00:00,73.8,63.4,29.98,SSW,211,3.0,9.0,70,0.00,,OVC024,0.00,25.00,VWS V14.01,2013-12-29 14:00:00,
2013-12-29 09:05:00,73.9,63.5,29.98,South,183,2.0,4.0,70,0.00,,OVC024,0.00,40.00,VWS V14.01,2013-12-29 14:05:00,
2013-12-29 09:10:00,73.9,63.5,29.98,SSW,207,4.0,7.0,70,0.00,,OVC024,0.00,39.00,VWS V14.01,2013-12-29 14:10:00,
2013-12-29 09:15:00,74.0,63.6,29.98,SSE,160,6.0,7.0,70,0.00,,OVC024,0.00,62.00,VWS V14.01,2013-12-29 14:15:00,
2013-12-29 09:20:00,74.0,63.6,29.98,SSW,194,4.0,8.0,70,0.00,,OVC024,0.00,62.00,VWS V14.01,2013-12-29 14:20:00,
2013-12-29 09:25:00,74.1,64.1,29.98,SE,132,8.0,8.0,71,0.00,,-RA,0.00,62.00,VWS V14.01,2013-12-29 14:25:00,
2013-12-29 09:30:00,74.2,64.6,29.99,SSW,209,2.0,3.0,72,0.00,,-RA,0.00,54.00,VWS V14.01,2013-12-29 14:30:00,
2013-12-29 09:35:00,74.2,64.6,29.99,South,186,4.0,14.0,72,0.00,,-RA,0.00,46.00,VWS V14.01,2013-12-29 14:35:00,
2013-12-29 09:40:00,74.4,65.2,30.00,SW,216,5.0,14.0,73,0.00,,-RA,0.00,58.00,VWS V14.01,2013-12-29 14:40:00,
2013-12-29 09:45:00,74.5,66.1,30.00,SSW,210,9.0,14.0,75,0.00,,-RA,0.00,44.00,VWS V14.01,2013-12-29 14:45:00,
2013-12-29 09:50:00,74.5,66.4,30.00,SSW,203,6.0,15.0,76,0.00,,-RA,0.00,54.00,VWS V14.01,2013-12-29 14:50:00,
2013-12-29 09:56:00,74.5,66.4,29.99,SSW,209,10.0,15.0,76,0.00,,-RA,0.00,74.00,VWS V14.01,2013-12-29 14:56:00,
2013-12-29 10:00:00,72.6,58.4,29.97,WSW,251,3.0,15.0,61,0.03,,,0.03,72.00,VWS V15.00,2013-12-29 15:00:00,
2013-12-29 10:01:00,74.4,66.0,29.99,SSW,192,5.0,6.0,75,0.00,,-RA,0.00,83.00,VWS V14.01,2013-12-29 15:01:00,
2013-12-29 10:06:00,74.3,65.9,29.99,SW,219,11.0,15.0,75,0.00,,-RA,0.00,105.00,VWS V14.01,2013-12-29 15:06:00,
2013-12-29 10:11:00,74.4,65.6,29.99,SW,223,5.0,15.0,74,0.00,,-RA,0.00,158.00,VWS V14.01,2013-12-29 15:11:00,
2013-12-29 10:16:00,74.5,65.7,29.98,SW,228,7.0,15.0,74,0.00,,-RA,0.00,204.00,VWS V14.01,2013-12-29 15:16:00,
2013-12-29 10:21:00,74.7,65.9,29.99,SSW,212,7.0,15.0,74,0.00,,-RA,0.00,148.00,VWS V14.01,2013-12-29 15:21:00,
2013-12-29 10:26:00,74.6,65.4,29.99,SSW,194,4.0,15.0,73,0.00,,-RA,0.00,84.00,VWS V14.01,2013-12-29 15:26:00,
2013-12-29 10:30:00,73.0,55.4,29.97,SW,218,7.0,14.0,54,0.04,,,0.04,223.00,VWS V15.00,2013-12-29 15:30:00,
2013-12-29 10:31:00,74.3,64.3,29.99,SW,232,10.0,10.0,71,0.01,,-RA,0.01,42.00,VWS V14.01,2013-12-29 15:31:00,
2013-12-29 10:36:00,73.9,63.1,29.99,SW,225,3.0,10.0,69,0.01,,-RA,0.01,25.00,VWS V14.01,2013-12-29 15:36:00,
2013-12-29 10:41:00,73.7,61.7,29.99,WSW,245,5.0,10.0,66,0.01,,-RA,0.01,44.00,VWS V14.01,2013-12-29 15:41:00,
2013-12-29 10:46:00,73.4,60.5,29.98,WSW,257,7.0,13.0,64,0.02,,-RA,0.02,54.00,VWS V14.01,2013-12-29 15:46:00,
2013-12-29 10:51:00,73.2,59.4,29.98,WSW,240,11.0,15.0,62,0.02,,-RA,0.02,53.00,VWS V14.01,2013-12-29 15:51:00,
2013-12-29 10:56:00,72.9,59.1,29.98,WSW,242,4.0,15.0,62,0.03,,OVC017,0.03,62.00,VWS V14.01,2013-12-29 15:56:00,
2013-12-29 11:00:00,72.6,58.4,29.97,WSW,251,3.0,15.0,61,0.03,,,0.03,72.00,VWS V15.00,2013-12-29 16:00:00,
2013-12-29 11:01:00,72.6,58.4,29.97,SW,215,7.0,7.0,61,0.03,,OVC017,0.03,74.00,VWS V14.01,2013-12-29 16:01:00,
2013-12-29 11:06:00,72.6,57.5,29.97,SW,222,5.0,7.0,59,0.04,,OVC017,0.04,95.00,VWS V14.01,2013-12-29 16:06:00,
2013-12-29 11:11:00,72.6,56.5,29.97,SW,217,5.0,8.0,57,0.04,,OVC017,0.04,137.00,VWS V14.01,2013-12-29 16:11:00,
2013-12-29 11:16:00,72.8,55.7,29.97,WSW,243,3.0,10.0,55,0.04,,OVC017,0.04,158.00,VWS V14.01,2013-12-29 16:16:00,
2013-12-29 11:21:00,72.8,56.2,29.97,WSW,243,5.0,14.0,56,0.04,,OVC017,0.04,156.00,VWS V14.01,2013-12-29 16:21:00,
2013-12-29 11:26:00,72.8,55.7,29.97,SSW,206,7.0,14.0,55,0.04,,OVC017,0.04,195.00,VWS V14.01,2013-12-29 16:26:00,
2013-12-29 11:30:00,73.6,59.8,29.95,WSW,244,5.0,11.0,62,0.01,,,0.04,183.00,VWS V15.00,2013-12-29 16:30:00,
2013-12-29 11:31:00,73.0,55.4,29.97,SSW,194,4.0,8.0,54,0.04,,OVC017,0.04,206.00,VWS V14.01,2013-12-29 16:31:00,
2013-12-29 11:36:00,73.2,55.1,29.97,WSW,257,3.0,9.0,53,0.04,,OVC017,0.04,162.00,VWS V14.01,2013-12-29 16:36:00,
2013-12-29 11:41:00,73.2,55.6,29.97,WSW,242,8.0,9.0,54,0.04,,OVC017,0.04,86.00,VWS V14.01,2013-12-29 16:41:00,
2013-12-29 11:46:00,73.2,55.6,29.97,WSW,246,3.0,11.0,54,0.04,,OVC017,0.04,188.00,VWS V14.01,2013-12-29 16:46:00,
2013-12-29 11:51:00,73.4,55.2,29.96,South,190,12.0,15.0,53,0.04,,OVC017,0.04,279.00,VWS V14.01,2013-12-29 16:51:00,
2013-12-29 11:56:00,73.7,55.5,29.96,SW,227,4.0,15.0,53,0.04,,OVC010,0.04,178.00,VWS V14.01,2013-12-29 16:56:00,
2013-12-29 12:00:00,73.8,56.1,29.96,WSW,240,6.0,15.0,54,0.04,,,0.04,200.00,VWS V15.00,2013-12-29 17:00:00,
2013-12-29 12:01:00,73.8,56.1,29.96,West,260,3.0,8.0,54,0.01,,OVC010,0.04,200.00,VWS V14.01,2013-12-29 17:01:00,
2013-12-29 12:07:00,73.8,57.6,29.96,WSW,257,2.0,10.0,57,0.01,,OVC010,0.04,139.00,VWS V14.01,2013-12-29 17:07:00,
2013-12-29 12:12:00,73.5,58.8,29.96,WSW,255,5.0,10.0,60,0.01,,OVC010,0.04,113.00,VWS V14.01,2013-12-29 17:12:00,
2013-12-29 12:17:00,73.6,58.9,29.95,West,266,8.0,10.0,60,0.01,,OVC010,0.04,234.00,VWS V14.01,2013-12-29 17:17:00,
2013-12-29 12:22:00,73.8,59.1,29.95,SW,223,3.0,10.0,60,0.01,,OVC010,0.04,160.00,VWS V14.01,2013-12-29 17:22:00,
2013-12-29 12:27:00,73.6,59.8,29.95,SW,225,4.0,11.0,62,0.01,,OVC010,0.04,200.00,VWS V14.01,2013-12-29 17:27:00,
2013-12-29 12:30:00,73.6,59.8,29.95,WSW,244,5.0,11.0,62,0.01,,,0.04,183.00,VWS V15.00,2013-12-29 17:30:00,
2013-12-29 12:32:00,73.5,59.7,29.95,SW,229,4.0,10.0,62,0.00,,OVC010,0.04,197.00,VWS V14.01,2013-12-29 17:32:00,
2013-12-29 12:37:00,73.5,60.2,29.94,SW,217,6.0,11.0,63,0.00,,OVC010,0.04,230.00,VWS V14.01,2013-12-29 17:37:00,
2013-12-29 12:42:00,73.6,61.1,29.94,WSW,254,3.0,11.0,65,0.00,,OVC010,0.04,214.00,VWS V14.01,2013-12-29 17:42:00,
2013-12-29 12:47:00,73.5,61.9,29.93,SW,215,5.0,11.0,67,0.00,,OVC010,0.04,214.00,VWS V14.01,2013-12-29 17:47:00,
2013-12-29 12:52:00,73.6,62.4,29.93,WNW,284,3.0,11.0,68,0.00,,OVC010,0.04,197.00,VWS V14.01,2013-12-29 17:52:00,
2013-12-29 12:57:00,73.6,63.2,29.92,WSW,247,9.0,11.0,70,0.00,,OVC016,0.04,255.00,VWS V14.01,2013-12-29 17:57:00,
2013-12-29 13:00:00,73.7,67.2,29.89,West,277,7.0,10.0,80,0.00,,,0.04,104.00,VWS V15.00,2013-12-29 18:00:00,
2013-12-29 13:02:00,73.9,64.7,29.92,SW,231,4.0,7.0,73,0.00,,OVC016,0.04,225.00,VWS V14.01,2013-12-29 18:02:00,
2013-12-29 13:07:00,73.9,65.9,29.92,SW,236,13.0,13.0,76,0.00,,OVC016,0.04,158.00,VWS V14.01,2013-12-29 18:07:00,
2013-12-29 13:12:00,73.8,65.8,29.92,SW,225,5.0,13.0,76,0.00,,OVC016,0.04,155.00,VWS V14.01,2013-12-29 18:12:00,
2013-12-29 13:17:00,73.6,66.3,29.91,WSW,239,3.0,13.0,78,0.00,,OVC016,0.04,114.00,VWS V14.01,2013-12-29 18:17:00,
2013-12-29 13:22:00,73.4,66.1,29.91,WSW,239,5.0,13.0,78,0.00,,OVC016,0.04,125.00,VWS V14.01,2013-12-29 18:22:00,
2013-12-29 13:27:00,73.5,66.2,29.91,West,268,2.0,13.0,78,0.00,,OVC016,0.04,176.00,VWS V14.01,2013-12-29 18:27:00,
2013-12-29 13:30:00,73.7,66.1,29.90,WSW,240,5.0,13.0,77,0.00,,,0.04,265.00,VWS V15.00,2013-12-29 18:30:00,
2013-12-29 13:32:00,73.7,66.4,29.90,SW,219,2.0,5.0,78,0.00,,OVC016,0.04,271.00,VWS V14.01,2013-12-29 18:32:00,
2013-12-29 13:37:00,73.9,67.0,29.90,WSW,252,3.0,5.0,79,0.00,,OVC016,0.04,360.00,VWS V14.01,2013-12-29 18:37:00,
2013-12-29 13:42:00,74.6,68.0,29.90,West,271,7.0,8.0,80,0.00,,OVC016,0.04,223.00,VWS V14.01,2013-12-29 18:42:00,
2013-12-29 13:47:00,74.3,67.7,29.90,WNW,288,4.0,9.0,80,0.00,,OVC016,0.04,200.00,VWS V14.01,2013-12-29 18:47:00,
2013-12-29 13:52:00,74.0,67.1,29.89,SW,233,3.0,9.0,79,0.00,,OVC016,0.04,183.00,VWS V14.01,2013-12-29 18:52:00,
2013-12-29 13:57:00,73.9,67.0,29.89,WNW,284,6.0,9.0,79,0.00,,OVC050,0.04,93.00,VWS V14.01,2013-12-29 18:57:00,
2013-12-29 14:00:00,71.0,56.0,29.89,West,263,4.0,9.0,59,0.04,,,0.08,60.00,VWS V15.00,2013-12-29 19:00:00,
2013-12-29 14:02:00,73.6,67.1,29.89,WNW,294,4.0,9.0,80,0.00,,OVC050,0.04,114.00,VWS V14.01,2013-12-29 19:02:00,
2013-12-29 14:07:00,73.5,67.0,29.89,West,259,3.0,9.0,80,0.00,,OVC050,0.04,88.00,VWS V14.01,2013-12-29 19:07:00,
2013-12-29 14:12:00,73.3,66.8,29.89,WSW,247,2.0,9.0,80,0.00,,OVC050,0.04,40.00,VWS V14.01,2013-12-29 19:12:00,
2013-12-29 14:17:00,73.2,66.3,29.89,West,274,7.0,9.0,79,0.00,,OVC050,0.04,53.00,VWS V14.01,2013-12-29 19:17:00,
2013-12-29 14:22:00,72.9,65.7,29.89,WSW,241,3.0,9.0,78,0.00,,OVC050,0.04,32.00,VWS V14.01,2013-12-29 19:22:00,
2013-12-29 14:27:00,72.6,64.6,29.89,West,274,7.0,9.0,76,0.01,,OVC050,0.05,33.00,VWS V14.01,2013-12-29 19:27:00,
2013-12-29 14:30:00,70.5,52.6,29.90,West,272,3.0,8.0,53,0.04,,,0.08,67.00,VWS V15.00,2013-12-29 19:30:00,
2013-12-29 14:32:00,72.2,62.7,29.89,NW,304,4.0,9.0,72,0.01,,OVC050,0.05,40.00,VWS V14.01,2013-12-29 19:32:00,
2013-12-29 14:38:00,71.7,61.4,29.89,WNW,299,3.0,9.0,70,0.01,,OVC050,0.05,53.00,VWS V14.01,2013-12-29 19:38:00,
2013-12-29 14:43:00,71.5,59.6,29.89,WNW,289,4.0,9.0,66,0.02,,OVC050,0.06,72.00,VWS V14.01,2013-12-29 19:43:00,
2013-12-29 14:48:00,71.3,58.5,29.89,WNW,286,6.0,9.0,64,0.03,,OVC050,0.07,54.00,VWS V14.01,2013-12-29 19:48:00,
2013-12-29 14:53:00,71.2,57.1,29.89,WNW,287,4.0,9.0,61,0.03,,OVC050,0.07,97.00,VWS V14.01,2013-12-29 19:53:00,
2013-12-29 14:58:00,71.1,56.1,29.89,WNW,294,7.0,9.0,59,0.03,,-RA,0.07,69.00,VWS V14.01,2013-12-29 19:58:00,
2013-12-29 15:00:00,71.0,56.0,29.89,West,263,4.0,9.0,59,0.04,,,0.08,60.00,VWS V15.00,2013-12-29 20:00:00,
2013-12-29 15:03:00,71.0,55.5,29.89,West,277,3.0,8.0,58,0.04,,-RA,0.08,62.00,VWS V14.01,2013-12-29 20:03:00,
2013-12-29 15:08:00,71.1,54.6,29.89,West,275,4.0,8.0,56,0.04,,-RA,0.08,104.00,VWS V14.01,2013-12-29 20:08:00,
2013-12-29 15:13:00,71.2,54.2,29.89,WSW,250,3.0,8.0,55,0.04,,-RA,0.08,32.00,VWS V14.01,2013-12-29 20:13:00,
2013-12-29 15:18:00,71.0,53.5,29.89,West,274,8.0,8.0,54,0.04,,-RA,0.08,42.00,VWS V14.01,2013-12-29 20:18:00,
2013-12-29 15:23:00,70.8,53.3,29.90,WSW,248,3.0,8.0,54,0.04,,-RA,0.08,58.00,VWS V14.01,2013-12-29 20:23:00,
2013-12-29 15:28:00,70.5,52.6,29.90,West,278,4.0,8.0,53,0.04,,-RA,0.08,76.00,VWS V14.01,2013-12-29 20:28:00,
2013-12-29 15:30:00,69.0,50.1,29.91,West,265,6.0,12.0,51,0.02,,,0.10,19.00,VWS V15.00,2013-12-29 20:30:00,
2013-12-29 15:33:00,70.5,52.6,29.90,West,275,3.0,7.0,53,0.03,,-RA,0.08,65.00,VWS V14.01,2013-12-29 20:33:00,
2013-12-29 15:38:00,70.6,52.1,29.90,West,281,2.0,7.0,52,0.03,,-RA,0.08,65.00,VWS V14.01,2013-12-29 20:38:00,
2013-12-29 15:43:00,70.4,52.0,29.90,NW,309,1.0,7.0,52,0.04,,-RA,0.09,51.00,VWS V14.01,2013-12-29 20:43:00,
2013-12-29 15:48:00,70.4,51.4,29.90,West,274,0.0,7.0,51,0.04,,-RA,0.09,28.00,VWS V14.01,2013-12-29 20:48:00,
2013-12-29 15:53:00,70.3,51.3,29.90,WNW,294,1.0,7.0,51,0.04,,-RA,0.09,28.00,VWS V14.01,2013-12-29 20:53:00,
2013-12-29 15:58:00,70.2,51.2,29.90,West,279,2.0,7.0,51,0.04,,-RA,0.09,49.00,VWS V14.01,2013-12-29 20:58:00,
2013-12-29 16:00:00,67.5,49.3,29.91,WNW,288,4.0,14.0,52,0.03,,,0.11,35.00,VWS V15.00,2013-12-29 21:00:00,
2013-12-29 16:03:00,70.0,51.1,29.90,West,279,4.0,9.0,51,0.01,,-RA,0.09,56.00,VWS V14.01,2013-12-29 21:03:00,
2013-12-29 16:08:00,69.8,50.9,29.90,West,269,7.0,9.0,51,0.01,,-RA,0.09,28.00,VWS V14.01,2013-12-29 21:08:00,
2013-12-29 16:13:00,69.7,50.8,29.90,West,275,6.0,9.0,51,0.01,,-RA,0.09,23.00,VWS V14.01,2013-12-29 21:13:00,
2013-12-29 16:18:00,69.5,50.6,29.90,West,281,4.0,9.0,51,0.01,,-RA,0.09,21.00,VWS V14.01,2013-12-29 21:18:00,
2013-12-29 16:23:00,69.3,50.9,29.90,West,268,6.0,12.0,52,0.01,,-RA,0.09,25.00,VWS V14.01,2013-12-29 21:23:00,
2013-12-29 16:28:00,69.1,50.2,29.91,WNW,290,8.0,12.0,51,0.02,,,0.10,19.00,VWS V14.01,2013-12-29 21:28:00,
2013-12-29 16:30:00,67.3,48.6,29.92,WNW,301,2.0,7.0,51,0.02,,,0.11,5.00,VWS V15.00,2013-12-29 21:30:00,
2013-12-29 16:33:00,68.9,50.0,29.91,WNW,284,9.0,13.0,51,0.02,,,0.10,25.00,VWS V14.01,2013-12-29 21:33:00,
2013-12-29 16:38:00,68.6,50.3,29.91,West,266,11.0,13.0,52,0.02,,,0.10,28.00,VWS V14.01,2013-12-29 21:38:00,
2013-12-29 16:43:00,68.2,49.9,29.91,NW,317,5.0,13.0,52,0.02,,,0.10,23.00,VWS V14.01,2013-12-29 21:43:00,
2013-12-29 16:48:00,68.1,49.8,29.91,NNW,328,8.0,13.0,52,0.02,,,0.10,21.00,VWS V14.01,2013-12-29 21:48:00,
2013-12-29 16:54:00,67.8,49.5,29.91,WNW,291,8.0,13.0,52,0.02,,,0.10,28.00,VWS V14.01,2013-12-29 21:54:00,
2013-12-29 16:59:00,67.5,49.3,29.91,NW,315,5.0,14.0,52,0.03,,BKN030,0.11,40.00,VWS V14.01,2013-12-29 21:59:00,
2013-12-29 17:00:00,66.9,48.2,29.92,NW,321,2.0,5.0,51,0.01,,,0.11,0.00,VWS V15.00,2013-12-29 22:00:00,
2013-12-29 17:04:00,67.4,49.2,29.92,WNW,294,5.0,7.0,52,0.02,,BKN030,0.11,21.00,VWS V14.01,2013-12-29 22:04:00,
2013-12-29 17:09:00,67.3,49.1,29.92,WNW,303,4.0,7.0,52,0.02,,BKN030,0.11,16.00,VWS V14.01,2013-12-29 22:09:00,
2013-12-29 17:14:00,67.3,49.1,29.92,WNW,290,3.0,7.0,52,0.02,,BKN030,0.11,9.00,VWS V14.01,2013-12-29 22:14:00,
2013-12-29 17:19:00,67.3,49.1,29.92,NW,305,1.0,7.0,52,0.02,,BKN030,0.11,16.00,VWS V14.01,2013-12-29 22:19:00,
2013-12-29 17:24:00,67.4,48.7,29.92,NW,317,1.0,7.0,51,0.02,,BKN030,0.11,9.00,VWS V14.01,2013-12-29 22:24:00,
2013-12-29 17:29:00,67.3,48.6,29.92,NW,311,1.0,7.0,51,0.02,,BKN030,0.11,5.00,VWS V14.01,2013-12-29 22:29:00,
2013-12-29 17:30:00,67.3,48.6,29.92,WNW,301,2.0,7.0,51,0.02,,,0.11,5.00,VWS V15.00,2013-12-29 22:30:00,
2013-12-29 17:34:00,67.2,48.5,29.92,NW,313,3.0,5.0,51,0.01,,BKN030,0.11,0.00,VWS V14.01,2013-12-29 22:34:00,
2013-12-29 17:39:00,67.1,48.4,29.92,NW,318,0.0,5.0,51,0.01,,BKN030,0.11,0.00,VWS V14.01,2013-12-29 22:39:00,
2013-12-29 17:44:00,67.1,48.4,29.92,NW,321,2.0,5.0,51,0.01,,BKN030,0.11,0.00,VWS V14.01,2013-12-29 22:44:00,
2013-12-29 17:49:00,67.0,48.3,29.92,NW,320,2.0,5.0,51,0.01,,BKN030,0.11,0.00,VWS V14.01,2013-12-29 22:49:00,
2013-12-29 17:54:00,67.0,48.3,29.92,NW,320,0.0,5.0,51,0.01,,BKN045,0.11,0.00,VWS V14.01,2013-12-29 22:54:00,
2013-12-29 17:59:00,67.0,48.3,29.92,NW,320,2.0,5.0,51,0.01,,BKN045,0.11,0.00,VWS V14.01,2013-12-29 22:59:00,
2013-12-29 18:00:00,66.0,47.9,29.94,West,270,1.0,4.0,52,0.00,,,0.11,0.00,VWS V15.00,2013-12-29 23:00:00,
2013-12-29 18:04:00,66.9,48.2,29.93,NW,315,0.0,3.0,51,0.00,,BKN045,0.11,0.00,VWS V14.01,2013-12-29 23:04:00,
2013-12-29 18:09:00,66.8,48.1,29.93,NW,305,2.0,4.0,51,0.00,,BKN045,0.11,0.00,VWS V14.01,2013-12-29 23:09:00,
2013-12-29 18:14:00,66.8,48.1,29.93,WNW,302,0.0,4.0,51,0.00,,BKN045,0.11,0.00,VWS V14.01,2013-12-29 23:14:00,
2013-12-29 18:19:00,66.7,48.0,29.93,WNW,302,2.0,4.0,51,0.00,,BKN045,0.11,0.00,VWS V14.01,2013-12-29 23:19:00,
2013-12-29 18:24:00,66.7,48.0,29.93,WNW,302,2.0,4.0,51,0.00,,BKN045,0.11,0.00,VWS V14.01,2013-12-29 23:24:00,
2013-12-29 18:29:00,66.6,47.9,29.94,West,279,2.0,4.0,51,0.00,,BKN045,0.11,0.00,VWS V14.01,2013-12-29 23:29:00,
2013-12-29 18:30:00,66.7,48.0,29.94,West,279,2.0,4.0,51,0.00,,,0.11,0.00,VWS V15.00,2013-12-29 23:30:00,
2013-12-29 18:34:00,66.6,47.9,29.94,West,278,1.0,4.0,51,0.00,,BKN045,0.11,0.00,VWS V14.01,2013-12-29 23:34:00,
2013-12-29 18:39:00,66.5,48.3,29.94,West,277,2.0,4.0,52,0.00,,BKN045,0.11,0.00,VWS V14.01,2013-12-29 23:39:00,
2013-12-29 18:44:00,66.4,48.3,29.94,WNW,286,2.0,4.0,52,0.00,,BKN045,0.11,0.00,VWS V14.01,2013-12-29 23:44:00,
2013-12-29 18:49:00,66.3,48.2,29.94,WNW,286,0.0,4.0,52,0.00,,BKN045,0.11,0.00,VWS V14.01,2013-12-29 23:49:00,
2013-12-29 18:54:00,66.1,48.0,29.94,WNW,286,2.0,4.0,52,0.00,,FEW050,0.11,0.00,VWS V14.01,2013-12-29 23:54:00,
2013-12-29 18:59:00,66.1,48.0,29.94,West,270,2.0,4.0,52,0.00,,FEW050,0.11,0.00,VWS V14.01,2013-12-29 23:59:00,
2013-12-29 19:00:00,64.8,47.3,29.96,West,277,1.0,6.0,53,0.00,,,0.11,0.00,VWS V15.00,2013-12-30 00:00:00,
2013-12-29 19:04:00,66.0,47.9,29.94,West,276,0.0,3.0,52,0.00,,FEW050,0.11,0.00,VWS V14.01,2013-12-30 00:04:00,
2013-12-29 19:09:00,66.0,47.9,29.94,West,276,1.0,3.0,52,0.00,,FEW050,0.11,0.00,VWS V14.01,2013-12-30 00:09:00,
2013-12-29 19:14:00,65.9,47.8,29.95,West,276,0.0,3.0,52,0.00,,FEW050,0.11,0.00,VWS V14.01,2013-12-30 00:14:00,
2013-12-29 19:19:00,65.8,48.2,29.95,West,276,3.0,3.0,53,0.00,,FEW050,0.11,0.00,VWS V14.01,2013-12-30 00:19:00,
2013-12-29 19:24:00,65.6,48.0,29.95,WNW,296,1.0,3.0,53,0.00,,FEW050,0.11,0.00,VWS V14.01,2013-12-30 00:24:00,
2013-12-29 19:30:00,65.6,48.0,29.95,WNW,287,4.0,4.0,53,0.00,,FEW050,0.11,0.00,VWS V14.01,2013-12-30 00:30:00,
2013-12-29 19:35:00,65.4,47.8,29.95,West,277,2.0,6.0,53,0.00,,FEW050,0.11,0.00,VWS V14.01,2013-12-30 00:35:00,
2013-12-29 19:40:00,65.2,47.7,29.95,West,271,2.0,6.0,53,0.00,,FEW050,0.11,0.00,VWS V14.01,2013-12-30 00:40:00,
2013-12-29 19:45:00,65.1,47.6,29.96,WNW,292,2.0,6.0,53,0.00,,FEW050,0.11,0.00,VWS V14.01,2013-12-30 00:45:00,
2013-12-29 19:50:00,65.0,47.5,29.96,West,268,2.0,6.0,53,0.00,,FEW050,0.11,0.00,VWS V14.01,2013-12-30 00:50:00,
2013-12-29 19:55:00,64.8,47.3,29.96,West,279,4.0,6.0,53,0.00,,FEW050,0.11,0.00,VWS V14.01,2013-12-30 00:55:00,
2013-12-29 20:00:00,64.8,47.3,29.96,West,277,2.0,6.0,53,0.00,,CLR,0.11,0.00,VWS V14.01,2013-12-30 01:00:00,
2013-12-29 20:05:00,64.8,47.3,29.96,West,275,2.0,3.0,53,0.00,,CLR,0.11,0.00,VWS V14.01,2013-12-30 01:05:00,
2013-12-29 20:10:00,64.8,47.3,29.97,West,275,2.0,3.0,53,0.00,,CLR,0.11,0.00,VWS V14.01,2013-12-30 01:10:00,
2013-12-29 20:15:00,64.9,46.9,29.97,West,268,0.0,4.0,52,0.00,,CLR,0.11,0.00,VWS V14.01,2013-12-30 01:15:00,
2013-12-29 20:20:00,65.1,47.1,29.97,WNW,294,3.0,6.0,52,0.00,,BKN003,0.11,0.00,VWS V14.01,2013-12-30 01:20:00,
2013-12-29 20:25:00,65.0,47.0,29.97,West,265,3.0,6.0,52,0.00,,BKN003,0.11,0.00,VWS V14.01,2013-12-30 01:25:00,
2013-12-29 20:30:00,65.1,47.1,29.97,West,269,2.0,6.0,52,0.00,,BKN003,0.11,0.00,VWS V14.01,2013-12-30 01:30:00,
2013-12-29 20:35:00,65.1,47.1,29.97,West,266,2.0,7.0,52,0.00,,BKN003,0.11,0.00,VWS V14.01,2013-12-30 01:35:00,
2013-12-29 20:40:00,65.2,47.2,29.98,West,260,4.0,7.0,52,0.00,,OVC002,0.11,0.00,VWS V14.01,2013-12-30 01:40:00,
2013-12-29 20:45:00,65.2,47.2,29.98,WSW,248,5.0,8.0,52,0.00,,OVC002,0.11,0.00,VWS V14.01,2013-12-30 01:45:00,
2013-12-29 20:50:00,65.2,47.2,29.98,West,277,6.0,8.0,52,0.00,,OVC002,0.11,0.00,VWS V14.01,2013-12-30 01:50:00,
2013-12-29 20:55:00,65.3,47.2,29.98,West,281,6.0,8.0,52,0.00,,OVC002,0.11,0.00,VWS V14.01,2013-12-30 01:55:00,
2013-12-29 21:00:00,65.3,47.2,29.98,WSW,240,2.0,8.0,52,0.00,,OVC002,0.11,0.00,VWS V14.01,2013-12-30 02:00:00,
2013-12-29 21:05:00,65.1,47.1,29.98,West,269,6.0,12.0,52,0.00,,OVC002,0.11,0.00,VWS V14.01,2013-12-30 02:05:00,
2013-12-29 21:10:00,64.7,46.7,29.99,WSW,257,4.0,12.0,52,0.00,,OVC002,0.11,0.00,VWS V14.01,2013-12-30 02:10:00,
2013-12-29 21:15:00,64.7,46.7,29.99,SW,233,4.0,12.0,52,0.00,,OVC002,0.11,0.00,VWS V14.01,2013-12-30 02:15:00,
2013-12-29 21:20:00,64.3,46.8,29.99,SSW,209,4.0,12.0,53,0.00,,OVC003,0.11,0.00,VWS V14.01,2013-12-30 02:20:00,
2013-12-29 21:25:00,63.9,46.5,29.99,West,261,3.0,12.0,53,0.00,,OVC003,0.11,0.00,VWS V14.01,2013-12-30 02:25:00,
2013-12-29 21:30:00,63.6,46.2,30.00,SW,224,2.0,12.0,53,0.00,,OVC003,0.11,0.00,VWS V14.01,2013-12-30 02:30:00,
2013-12-29 21:35:00,63.3,46.4,30.00,SW,225,6.0,9.0,54,0.00,,OVC003,0.11,0.00,VWS V14.01,2013-12-30 02:35:00,
2013-12-29 21:40:00,63.1,46.2,30.00,WSW,250,2.0,9.0,54,0.00,,OVC003,0.11,0.00,VWS V14.01,2013-12-30 02:40:00,
2013-12-29 21:45:00,63.0,46.1,30.00,SSW,206,1.0,9.0,54,0.00,,OVC003,0.11,0.00,VWS V14.01,2013-12-30 02:45:00,
2013-12-29 21:50:00,62.9,46.0,30.00,West,280,6.0,9.0,54,0.00,,OVC003,0.11,0.00,VWS V14.01,2013-12-30 02:50:00,
2013-12-29 21:55:00,62.7,45.8,30.00,West,268,3.0,9.0,54,0.00,,OVC003,0.11,0.00,VWS V14.01,2013-12-30 02:55:00,
2013-12-29 22:00:00,62.4,45.5,30.00,WSW,257,7.0,9.0,54,0.00,,OVC002,0.11,0.00,VWS V14.01,2013-12-30 03:00:00,
2013-12-29 22:05:00,62.3,45.5,30.00,WSW,245,3.0,10.0,54,0.00,,OVC002,0.11,0.00,VWS V14.01,2013-12-30 03:05:00,
2013-12-29 22:10:00,62.2,45.4,30.00,West,259,3.0,10.0,54,0.00,,OVC002,0.11,0.00,VWS V14.01,2013-12-30 03:10:00,
2013-12-29 22:15:00,62.2,45.4,30.01,West,277,4.0,10.0,54,0.00,,OVC002,0.11,0.00,VWS V14.01,2013-12-30 03:15:00,
2013-12-29 22:20:00,62.2,45.4,30.01,WNW,296,7.0,10.0,54,0.00,,OVC002,0.11,0.00,VWS V14.01,2013-12-30 03:20:00,
2013-12-29 22:26:00,62.2,45.4,30.01,WSW,250,4.0,10.0,54,0.00,,OVC002,0.11,0.00,VWS V14.01,2013-12-30 03:26:00,
2013-12-29 22:30:00,61.3,45.0,30.01,West,273,6.0,8.0,55,0.00,,,0.11,0.00,VWS V15.00,2013-12-30 03:30:00,
2013-12-29 22:31:00,62.2,45.4,30.01,WNW,288,4.0,7.0,54,0.00,,OVC002,0.11,0.00,VWS V14.01,2013-12-30 03:31:00,
2013-12-29 22:36:00,62.0,45.2,30.01,SW,235,0.0,7.0,54,0.00,,OVC002,0.11,0.00,VWS V14.01,2013-12-30 03:36:00,
2013-12-29 22:41:00,62.0,45.2,30.01,WSW,244,3.0,7.0,54,0.00,,OVC002,0.11,0.00,VWS V14.01,2013-12-30 03:41:00,
2013-12-29 22:46:00,61.9,45.1,30.01,West,281,4.0,7.0,54,0.00,,OVC002,0.11,0.00,VWS V14.01,2013-12-30 03:46:00,
2013-12-29 22:51:00,61.9,45.6,30.01,West,267,3.0,7.0,55,0.00,,OVC002,0.11,0.00,VWS V14.01,2013-12-30 03:51:00,
2013-12-29 22:56:00,62.0,45.2,30.01,WSW,247,1.0,7.0,54,0.00,,OVC002,0.11,0.00,VWS V14.01,2013-12-30 03:56:00,
2013-12-29 23:00:00,61.9,45.6,30.01,West,278,3.0,7.0,55,0.00,,,0.11,0.00,VWS V15.00,2013-12-30 04:00:00,
2013-12-29 23:01:00,62.0,45.7,30.01,WSW,248,5.0,5.0,55,0.00,,OVC003,0.11,0.00,VWS V14.01,2013-12-30 04:01:00,
2013-12-29 23:06:00,61.9,45.1,30.01,WNW,285,1.0,7.0,54,0.00,,OVC003,0.11,0.00,VWS V14.01,2013-12-30 04:06:00,
2013-12-29 23:11:00,61.9,45.1,30.01,WNW,295,3.0,7.0,54,0.00,,OVC003,0.11,0.00,VWS V14.01,2013-12-30 04:11:00,
2013-12-29 23:16:00,61.8,45.5,30.01,WNW,289,7.0,7.0,55,0.00,,OVC003,0.11,0.00,VWS V14.01,2013-12-30 04:16:00,
2013-12-29 23:21:00,61.6,45.3,30.00,West,264,3.0,7.0,55,0.00,,OVC004,0.11,0.00,VWS V14.01,2013-12-30 04:21:00,
2013-12-29 23:26:00,61.3,45.0,30.01,WNW,290,2.0,7.0,55,0.00,,OVC004,0.11,0.00,VWS V14.01,2013-12-30 04:26:00,
2013-12-29 23:30:00,60.8,45.0,30.00,WNW,297,2.0,9.0,56,0.00,,,0.00,0.00,VWS V15.00,2013-12-30 04:30:00,
2013-12-29 23:31:00,61.3,45.0,30.00,WNW,289,4.0,6.0,55,0.00,,OVC004,0.11,0.00,VWS V14.01,2013-12-30 04:31:00,
2013-12-29 23:36:00,61.2,44.9,30.01,West,276,4.0,6.0,55,0.00,,OVC004,0.11,0.00,VWS V14.01,2013-12-30 04:36:00,
2013-12-29 23:41:00,61.1,44.8,30.01,WSW,254,7.0,8.0,55,0.00,,OVC004,0.11,0.00,VWS V14.01,2013-12-30 04:41:00,
2013-12-29 23:46:00,61.1,44.8,30.01,WNW,288,5.0,8.0,55,0.00,,OVC004,0.11,0.00,VWS V14.01,2013-12-30 04:46:00,
2013-12-29 23:51:00,61.1,44.8,30.01,NW,309,3.0,8.0,55,0.00,,OVC004,0.11,0.00,VWS V14.01,2013-12-30 04:51:00,
2013-12-29 23:56:00,61.0,45.2,30.01,West,264,3.0,8.0,56,0.00,,OVC004,0.11,0.00,VWS V14.01,2013-12-30 04:56:00,